Probability
32 32 23 13 26 23 19 23 19 19 13 19 19 19 23 19 13 13 13 10 6 10 6 6 3 0 0 0 0 0 0 0 0 0 0 0 0 0 0 3 3 0 0
35 35 26 23 19 23 29 29 19 16 19 19 16 16 26 19 16 13 6 6 10 6 6 6 6 0 0 0 0 0 0 0 0 0 0 0 0 0 0 3 0 0 0
45 45 35 35 35 32 32 32 26 26 26 26 23 19 10 10 13 10 6 6 3 6 10 10 6 0 0 0 0 0 0 0 0 0 0 0 0 0 0 0 3 3 0
45 48 55 45 45 42 29 29 29 29 29 29 29 23 19 26 16 16 13 6 6 6 6 3 6 3 0 0 0 0 0 0 0 0 0 0 0 0 0 0 0 0 0
48 58 48 48 48 39 35 39 29 32 29 32 29 19 16 19 10 10 10 3 3 6 6 6 6 3 0 0 0 0 0 0 0 0 0 0 0 0 0 0 0 0 0
58 58 52 45 48 52 45 48 32 26 23 26 16 13 13 10 6 10 10 10 3 3 3 3 6 6 0 0 0 3 3 3 0 0 0 0 0 0 0 0 0 0 0
55 55 52 45 52 52 45 45 39 32 26 23 19 16 16 16 10 13 13 13 6 6 10 10 3 3 3 3 3 3 3 3 3 0 0 0 0 0 0 0 0 0 0
55 55 52 55 58 52 45 42 32 26 19 19 23 19 19 16 16 13 16 16 16 10 6 10 10 10 6 3 6 6 10 10 6 6 0 0 0 0 0 0 0 3 3
65 68 58 58 55 52 48 45 39 29 26 26 23 23 19 19 16 13 16 13 13 13 13 16 13 16 10 10 6 10 10 10 13 10 13 10 10 3 0 0 0 0 3
74 65 61 58 52 55 42 48 45 29 26 32 29 26 19 19 26 19 19 23 13 10 10 13 13 13 10 6 3 6 10 6 6 3 3 3 3 3 0 0 0 0 0
68 65 61 61 55 48 48 48 39 39 26 19 23 32 23 23 23 19 13 10 10 16 16 10 13 13 6 10 6 6 3 3 3 3 0 0 0 3 3 3 0 0 0
61 61 61 61 55 55 58 45 42 42 39 26 23 26 16 16 23 26 23 19 13 13 13 16 16 13 13 6 3 3 3 3 0 0 0 0 0 0 3 3 3 3 3
55 58 58 55 52 55 45 42 39 39 35 32 29 26 23 23 23 19 19 16 10 13 16 16 13 10 6 6 6 6 0 0 0 0 0 0 0 0 3 3 3 3 3
58 58 55 52 55 58 48 39 35 32 35 35 26 26 23 16 16 19 16 16 13 13 13 16 16 10 6 6 3 0 0 0 0 0 0 0 0 0 0 0 0 0 0
58 55 61 52 42 45 39 32 29 29 26 19 23 16 16 16 13 13 13 16 16 10 10 10 6 3 3 0 0 0 0 0 0 0 0 0 0 0 0 0 0 0 0
58 61 58 55 45 45 35 29 19 19 19 16 10 13 13 16 16 13 13 13 13 10 6 6 3 3 3 3 0 0 0 0 0 0 0 0 0 0 0 0 0 0 0
58 58 61 61 55 42 39 26 23 19 13 10 10 10 16 13 16 16 13 10 10 10 10 6 3 3 0 0 0 0 0 0 0 0 0 0 0 0 0 0 0 0 0
52 45 48 55 52 39 29 19 16 13 13 10 10 13 16 13 13 13 13 10 10 10 6 3 3 3 3 0 0 0 0 0 0 0 0 0 0 0 0 0 0 0 0
35 39 39 32 26 26 26 16 13 13 13 13 6 6 10 10 10 10 10 10 10 3 3 3 3 3 0 0 0 0 0 0 0 0 0 0 0 0 0 0 0 0 0
32 39 32 23 29 16 16 13 10 6 6 6 10 10 10 10 10 6 6 6 3 3 3 0 0 0 0 0 0 0 0 0 0 0 0 0 0 0 0 0 0 0 0
29 42 35 26 23 16 10 16 13 13 10 10 6 10 10 6 10 6 3 3 0 0 0 0 0 0 0 0 0 0 0 0 0 0 0 0 0 0 0 0 0 0 0
29 29 29 26 23 16 10 13 10 10 10 6 10 10 6 6 6 3 3 0 0 0 0 0 0 0 0 0 0 0 0 0 0 0 0 0 0 0 0 0 0 0 0
29 32 23 26 19 13 16 10 10 6 6 6 6 3 3 3 3 3 0 0 0 0 0 0 0 0 0 0 0 0 0 0 0 0 0 0 0 0 0 0 0 0 0
32 26 16 19 13 10 6 6 6 6 6 6 3 3 0 0 0 0 0 0 0 0 0 0 0 0 0 0 0 0 0 0 0 0 0 0 0 0 0 0 0 0 0
16 19 19 19 10 3 3 3 6 10 6 0 0 0 0 0 0 0 0 0 0 0 0 0 0 0 0 0 0 0 0 0 0 0 0 0 0 0 0 0 0 0 0
16 16 13 10 10 3 3 3 3 3 3 3 0 0 0 0 0 0 0 0 0 0 0 0 0 0 0 0 0 0 0 0 0 0 0 0 0 0 0 0 0 0 0
Height
5916 5914 5912 5910 5908 5906 5905 5903 5901 5899 5898 5897 5896 5896 5896 5896 5896 5895 5895 5896 5896 5896 5897 5897 5898 5898 5899 5899 5900 5901 5901 5902 5903 5903 5903 5904 5904 5904 5904 5904 5904 5904 5903
5916 5914 5912 5909 5908 5906 5905 5903 5902 5900 5898 5897 5896 5895 5895 5895 5895 5895 5895 5895 5895 5895 5896 5897 5897 5898 5898 5898 5899 5899 5900 5901 5901 5901 5902 5902 5903 5902 5902 5902 5902 5902 5901
5916 5914 5912 5910 5908 5906 5904 5903 5902 5900 5898 5897 5896 5895 5895 5894 5894 5894 5894 5894 5893 5894 5895 5895 5896 5896 5896 5897 5897 5898 5898 5899 5899 5899 5900 5900 5900 5900 5900 5900 5900 5899 5899
5915 5913 5911 5909 5907 5905 5904 5902 5901 5900 5898 5896 5895 5895 5894 5894 5893 5893 5893 5893 5893 5893 5893 5894 5894 5894 5895 5895 5895 5896 5896 5897 5897 5897 5898 5898 5898 5898 5898 5897 5897 5896 5896
5915 5913 5910 5908 5906 5904 5903 5901 5900 5899 5897 5896 5895 5894 5893 5893 5893 5892 5892 5892 5892 5892 5892 5892 5892 5893 5893 5893 5893 5894 5894 5894 5895 5895 5895 5895 5895 5895 5894 5894 5894 5893 5892
5914 5912 5910 5907 5905 5903 5902 5900 5899 5898 5897 5896 5895 5894 5893 5892 5892 5892 5891 5891 5891 5890 5890 5891 5891 5891 5891 5891 5891 5891 5891 5892 5892 5892 5892 5892 5892 5891 5891 5891 5890 5890 5889
5913 5911 5908 5906 5903 5902 5900 5899 5898 5896 5895 5895 5894 5893 5892 5891 5890 5890 5890 5890 5889 5889 5889 5889 5889 5889 5889 5889 5889 5889 5889 5889 5889 5889 5889 5888 5888 5888 5888 5887 5887 5886 5885
5911 5909 5907 5905 5902 5900 5898 5897 5896 5895 5894 5893 5893 5892 5890 5890 5889 5889 5889 5888 5888 5888 5888 5888 5887 5887 5887 5887 5887 5886 5886 5886 5886 5886 5885 5885 5884 5884 5883 5883 5882 5882 5881
5910 5908 5905 5903 5901 5898 5896 5895 5894 5893 5892 5892 5891 5890 5889 5888 5887 5887 5887 5887 5887 5887 5886 5886 5885 5885 5885 5884 5884 5884 5883 5883 5883 5882 5882 5881 5880 5879 5879 5878 5878 5877 5876
5909 5906 5904 5901 5899 5897 5895 5893 5892 5891 5890 5890 5889 5888 5887 5886 5886 5886 5885 5885 5885 5885 5884 5884 5883 5883 5882 5881 5881 5881 5880 5880 5879 5879 5878 5877 5876 5875 5874 5874 5873 5872 5871
5907 5904 5902 5900 5898 5895 5893 5892 5890 5889 5888 5888 5887 5886 5886 5885 5884 5884 5884 5883 5883 5882 5882 5881 5881 5880 5879 5879 5878 5878 5877 5876 5876 5875 5874 5873 5872 5871 5870 5869 5867 5866 5865
5905 5903 5901 5899 5896 5894 5892 5890 5889 5888 5887 5886 5885 5884 5884 5883 5883 5882 5881 5881 5880 5880 5879 5879 5878 5877 5876 5876 5875 5874 5873 5873 5872 5871 5870 5869 5868 5867 5865 5864 5862 5861 5860
5902 5900 5899 5897 5895 5893 5891 5890 5888 5887 5885 5884 5883 5882 5882 5881 5881 5880 5879 5878 5877 5877 5876 5875 5875 5874 5873 5872 5871 5870 5870 5869 5868 5867 5866 5865 5863 5862 5860 5859 5857 5856 5854
5900 5899 5897 5895 5893 5891 5890 5889 5887 5886 5884 5882 5881 5881 5880 5879 5878 5877 5876 5875 5874 5873 5872 5872 5871 5870 5869 5868 5867 5866 5866 5865 5864 5863 5861 5860 5859 5857 5856 5854 5852 5850 5848
5898 5896 5895 5893 5891 5890 5888 5887 5885 5884 5882 5881 5880 5879 5878 5877 5875 5874 5873 5872 5871 5870 5869 5868 5867 5867 5865 5864 5863 5862 5861 5860 5860 5858 5857 5855 5853 5852 5850 5848 5846 5844 5842
5894 5893 5892 5891 5890 5888 5886 5885 5883 5882 5880 5879 5878 5876 5875 5874 5873 5871 5870 5869 5868 5867 5866 5865 5863 5862 5861 5860 5859 5858 5857 5856 5854 5853 5852 5850 5848 5846 5844 5842 5840 5839 5837
5890 5889 5889 5888 5887 5885 5884 5882 5881 5879 5877 5876 5875 5873 5872 5871 5869 5868 5867 5865 5864 5863 5862 5860 5859 5858 5857 5855 5854 5853 5852 5851 5849 5848 5846 5844 5842 5840 5838 5836 5835 5833 5830
5885 5885 5884 5883 5882 5881 5880 5879 5877 5876 5874 5873 5871 5870 5868 5867 5866 5864 5863 5862 5861 5859 5857 5856 5854 5853 5852 5851 5850 5848 5847 5845 5844 5842 5841 5839 5837 5835 5833 5831 5829 5826 5824
5881 5880 5879 5878 5878 5877 5876 5874 5873 5872 5870 5868 5866 5865 5864 5863 5861 5860 5859 5857 5856 5855 5853 5851 5850 5848 5847 5845 5844 5843 5842 5840 5838 5836 5834 5833 5831 5829 5827 5825 5822 5820 5818
5876 5875 5874 5873 5872 5872 5871 5870 5869 5867 5865 5863 5862 5860 5859 5858 5857 5856 5854 5853 5852 5850 5848 5847 5845 5843 5842 5840 5839 5838 5836 5834 5833 5831 5828 5826 5824 5822 5820 5817 5815 5813 5811
5870 5870 5869 5868 5868 5867 5866 5865 5864 5862 5860 5858 5857 5856 5854 5853 5852 5850 5849 5848 5847 5845 5844 5842 5840 5838 5837 5835 5834 5832 5830 5828 5826 5824 5822 5820 5817 5815 5812 5810 5808 5806 5803
5863 5864 5863 5863 5862 5861 5861 5859 5858 5857 5855 5853 5852 5850 5849 5847 5846 5845 5844 5843 5841 5840 5839 5837 5835 5833 5832 5830 5828 5826 5824 5822 5820 5817 5815 5812 5810 5807 5805 5802 5800 5797 5795
5856 5857 5857 5856 5855 5855 5854 5853 5852 5851 5849 5848 5846 5844 5843 5842 5841 5839 5838 5837 5835 5834 5833 5831 5830 5828 5826 5824 5822 5819 5817 5815 5812 5810 5807 5805 5802 5799 5797 5794 5791 5788 5786
5849 5849 5850 5850 5849 5849 5848 5847 5846 5845 5844 5842 5841 5840 5838 5837 5835 5833 5831 5830 5829 5828 5827 5825 5823 5821 5819 5817 5815 5812 5810 5807 5804 5802 5799 5796 5793 5791 5788 5785 5782 5779 5777
5840 5841 5842 5842 5842 5841 5841 5840 5839 5838 5837 5835 5834 5833 5832 5830 5828 5827 5825 5824 5823 5821 5820 5818 5816 5814 5812 5810 5807 5805 5802 5799 5797 5794 5791 5788 5785 5782 5779 5776 5773 5770 5767
5832 5833 5834 5834 5834 5833 5833 5832 5831 5830 5829 5828 5827 5826 5824 5823 5821 5820 5818 5817 5815 5814 5812 5810 5808 5806 5804 5802 5799 5796 5793 5790 5788 5785 5782 5778 5775 5772 5769 5766 5763 5760 5757
Wind_Speed
15 15 15 14 13 12 11 11 11 11 8 6 4 3 3 2 2 2 2 2 3 2 3 3 4 4 5 6 6 6 6 6 6 6 6 7 6 7 7 7 8 9 9
14 15 14 14 12 11 11 11 11 10 8 6 5 3 2 3 3 3 3 3 4 4 4 4 5 5 6 6 7 8 8 8 8 8 8 8 8 9 9 9 10 10 11
13 13 13 13 12 10 10 11 10 9 8 6 5 4 4 4 4 4 4 4 4 5 5 5 5 6 6 7 8 9 9 10 10 10 10 10 11 11 11 12 12 13 13
13 13 12 12 12 10 10 10 10 9 8 7 6 5 4 4 4 4 4 4 4 5 6 6 6 6 7 8 9 10 10 11 11 12 12 12 12 13 13 13 14 14 15
13 13 13 12 12 10 10 10 10 9 8 7 6 5 4 4 5 5 5 5 5 5 6 7 7 8 8 9 10 10 11 11 12 12 13 14 14 14 14 14 15 15 15
14 14 13 12 12 11 11 10 10 9 8 7 7 6 5 5 5 5 5 5 5 5 5 7 7 8 8 8 8 9 11 11 12 13 14 14 14 14 14 15 15 16 17
14 14 13 13 12 13 12 11 11 9 7 7 7 7 6 6 6 5 5 5 5 5 6 6 7 8 7 8 9 9 10 11 13 14 15 15 15 15 16 17 17 18 19
14 14 14 13 13 14 13 12 11 10 8 8 8 8 7 7 6 5 5 5 5 5 6 7 7 8 8 9 9 10 11 12 13 14 15 16 16 17 17 18 19 19 20
14 16 15 13 14 14 14 11 10 9 9 9 9 8 8 7 6 5 6 6 6 7 7 8 8 9 10 10 11 11 12 13 14 14 15 16 17 18 19 19 20 21 21
14 15 15 15 15 15 15 13 11 10 10 9 9 8 8 8 7 7 7 7 7 8 8 9 9 10 11 11 12 12 13 14 14 15 15 16 17 19 19 20 21 22 23
14 15 14 14 15 15 14 12 11 10 9 8 8 8 8 8 8 8 9 9 9 9 9 9 10 11 11 12 12 13 13 14 14 15 16 16 17 18 19 21 22 23 23
14 15 15 14 14 14 13 12 11 10 9 8 8 8 8 9 9 10 10 10 10 10 10 11 11 12 12 13 13 14 14 14 15 16 16 17 18 18 19 20 21 22 23
15 16 16 15 15 13 12 12 11 11 10 9 9 9 9 10 10 10 11 11 11 11 11 12 12 13 13 14 14 14 14 15 15 16 16 17 18 19 20 20 21 22 23
16 17 17 16 16 13 12 13 11 11 10 10 9 9 10 11 11 12 11 11 12 13 13 13 14 14 14 14 15 15 15 16 17 17 18 19 20 21 22 22 23 23 24
17 17 17 17 15 14 13 13 12 11 11 10 10 11 11 12 12 12 12 12 12 13 13 14 14 15 16 16 16 16 16 17 17 18 19 20 20 21 22 22 23 23 23
17 18 17 16 15 15 14 13 13 12 12 12 12 12 12 12 13 13 13 13 13 13 14 15 15 16 17 16 16 17 18 18 18 19 20 21 22 22 22 22 23 24 24
18 18 17 17 17 16 15 14 14 13 14 13 13 13 13 13 14 14 14 14 14 15 16 16 17 17 17 17 18 18 19 19 19 20 20 21 22 22 23 23 23 23 24
19 19 19 19 19 18 17 16 15 15 16 16 15 15 16 15 15 15 15 15 16 16 17 18 17 17 18 19 19 20 20 20 21 21 22 22 22 23 23 23 24 24 25
22 22 22 22 21 19 19 18 18 17 18 18 17 16 17 17 17 17 17 17 17 17 17 17 17 17 18 19 19 20 21 22 22 22 22 22 23 23 24 24 25 26 26
23 23 23 23 21 20 21 20 19 19 20 19 18 18 18 18 19 19 19 18 18 18 18 18 17 17 18 18 19 20 21 22 23 23 24 24 25 25 26 26 26 27 27
23 23 23 23 22 22 22 21 21 21 20 20 20 20 20 20 20 20 20 19 19 19 19 19 18 18 18 19 20 21 22 23 23 24 25 25 26 27 27 27 28 28 29
26 25 24 24 23 23 23 22 22 22 22 21 21 21 21 21 20 20 20 20 20 20 20 20 20 20 20 21 22 23 24 24 25 25 26 27 27 28 29 29 29 30 31
28 27 27 26 26 25 24 24 24 24 25 24 23 23 22 22 21 21 21 21 22 22 22 22 22 23 23 24 24 25 26 26 27 27 28 28 29 30 31 31 31 31 32
30 29 30 29 28 28 27 27 27 27 26 26 25 25 24 24 24 24 23 23 24 24 24 24 24 25 26 26 27 28 28 28 29 30 30 31 31 31 32 32 32 33 33
33 31 30 30 30 30 29 29 28 28 28 27 27 26 26 25 25 25 25 25 26 25 26 26 27 27 27 28 29 30 30 31 31 32 32 33 33 32 33 33 33 34 35
35 33 32 32 31 31 31 31 30 30 30 29 28 28 27 27 27 27 27 27 27 27 27 28 28 29 29 30 31 31 32 33 33 33 33 33 34 33 33 34 34 35 35
Wind_Direction
3 0 358 355 356 358 360 1 3 4 5 354 340 329 329 318 299 293 292 264 252 239 227 236 232 233 237 233 234 235 236 240 248 251 253 256 263 271 275 279 279 281 285
358 358 354 352 351 353 354 355 359 2 1 355 340 324 310 288 278 281 278 275 265 255 243 243 245 246 245 242 242 242 245 249 254 255 258 261 266 273 278 280 280 283 284
354 353 351 353 349 347 350 351 353 355 354 354 354 324 308 297 285 276 266 268 266 261 256 254 251 248 251 254 247 247 249 254 257 260 265 269 271 272 276 279 280 282 283
345 344 347 345 342 344 348 347 348 352 349 346 339 331 319 309 301 293 279 274 262 259 258 258 256 256 257 254 253 253 255 260 261 264 267 271 273 274 276 279 280 281 282
339 339 340 339 335 338 342 343 339 343 345 343 333 334 333 314 305 299 286 277 269 273 262 260 263 266 265 263 261 260 263 265 267 267 269 272 274 276 276 277 279 280 282
339 336 334 331 329 331 335 338 332 332 336 341 335 329 320 313 304 298 287 281 276 277 269 257 264 270 271 268 268 266 266 265 267 270 271 271 273 275 274 277 279 281 283
340 333 331 329 330 332 330 325 327 326 327 329 330 324 319 308 299 292 288 287 282 282 277 267 269 272 274 272 273 273 269 269 271 273 273 272 272 274 275 276 278 281 283
337 333 328 330 334 332 328 321 323 323 321 321 322 320 315 306 297 291 284 283 284 283 280 277 279 279 278 272 272 273 274 275 276 276 275 275 277 278 278 277 278 280 282
333 335 336 335 335 333 330 324 322 321 318 317 318 316 313 304 292 284 280 278 277 280 280 280 282 284 282 278 273 272 275 276 279 280 280 278 278 278 279 279 279 281 282
330 334 333 332 331 332 330 322 320 318 315 312 313 314 309 304 292 284 285 281 279 279 281 285 286 286 284 280 278 275 277 278 279 281 281 281 279 278 279 281 282 283 284
322 328 329 331 334 331 329 324 318 315 314 312 310 307 307 303 297 291 291 286 284 279 277 283 288 289 287 287 286 281 280 280 283 283 281 281 282 283 285 285 284 284 284
316 324 330 331 331 333 335 334 327 323 318 312 309 307 304 305 301 296 295 291 286 283 281 282 288 290 289 288 287 283 283 284 285 283 283 283 284 286 288 287 287 286 286
313 318 324 327 328 329 332 333 329 325 321 312 305 305 305 306 307 304 298 295 288 283 285 286 287 288 288 286 285 283 285 287 287 287 286 287 288 288 289 290 290 291 290
308 313 318 322 324 324 324 325 325 324 322 317 312 307 305 304 304 305 302 298 290 282 281 284 285 287 288 289 288 285 286 287 288 289 288 287 288 289 289 290 291 292 292
304 308 316 321 321 320 320 320 322 322 322 317 310 307 303 303 305 304 299 295 296 291 285 285 285 285 286 287 289 287 287 288 287 289 290 290 290 291 291 291 291 292 294
299 304 309 313 314 315 315 313 313 315 318 318 310 306 305 303 302 303 302 299 297 296 293 292 290 286 284 285 288 290 292 292 291 292 293 293 292 293 292 291 291 292 293
292 298 300 303 306 305 304 302 301 305 309 311 309 306 304 303 300 300 301 299 297 295 294 294 290 287 285 285 286 288 291 293 293 293 294 293 293 293 293 291 291 292 293
289 293 296 297 299 298 296 296 297 301 304 304 303 302 301 299 297 297 299 298 296 295 294 293 292 290 288 287 287 290 293 294 294 295 293 293 293 294 294 293 292 292 292
286 291 292 291 291 291 296 298 298 298 299 298 298 297 298 297 297 298 297 296 295 294 295 298 293 290 290 290 290 291 292 293 294 294 294 293 293 294 294 293 292 292 292
282 288 292 288 286 287 293 296 297 297 297 294 295 295 296 295 294 294 294 295 295 295 297 298 295 293 294 294 294 293 293 293 294 295 295 294 294 293 294 292 292 291 292
278 284 288 288 286 287 290 290 292 294 295 291 290 292 293 292 291 291 291 293 293 295 296 298 296 295 295 293 292 293 294 295 295 295 295 295 295 294 293 293 293 292 292
273 279 284 285 285 288 288 287 289 292 294 294 292 290 291 291 290 290 290 291 292 293 293 293 295 297 297 295 293 293 294 295 296 297 297 296 296 295 294 293 293 293 293
270 273 279 283 285 289 289 289 289 291 294 295 295 293 289 289 288 289 290 291 291 291 291 292 293 295 296 297 298 298 297 296 297 298 299 298 297 295 294 293 292 292 292
267 271 276 281 285 288 289 291 292 290 292 294 294 294 292 292 292 292 291 292 293 291 292 293 293 293 295 297 298 299 299 298 299 299 299 299 297 296 294 293 292 293 293
266 270 273 279 283 285 287 289 290 288 290 291 292 292 290 291 292 294 294 295 295 293 291 292 293 295 296 297 298 299 298 298 298 298 298 298 297 296 294 293 293 293 293
265 268 272 276 280 283 285 286 287 287 287 288 288 289 289 288 289 291 292 294 294 292 291 291 293 294 295 297 299 299 299 298 298 298 298 298 297 295 295 294 294 293 293